sat.trackr.live / text

‹ back to catalog

STARLINK-30427

NORAD 57865 · 2023-144B

PAYLOAD ACTIVE UNKNOWN

§ Identity

Operator
Country
US
Launch date
2023-09-16
Launch site
AFETR
Launch vehicle
Mass (kg)
RCS (m²)

Purposes: comms

External: N2YO · Heavens-Above · Gunter

§ Orbital elements

Epoch: 2026-05-25T05:23:48.109632Z

Period
94.27 min
Inclination
43.0013°
Eccentricity
0.0001037
Mean motion
15.27586473 rev/d
Perigee alt
482.3 km
Apogee alt
483.7 km
Semi-major
6,861.2 km
B*
1.2840e-4
RAAN
212.8721°
Arg perigee
261.1033°
Mean anomaly
98.9701°
Rev number
14,930

§ Raw data

STARLINK-304271 57865U 23144B   26145.22486238  .00003274  00000+0  12840-3 0  99912 57865  43.0013 212.8721 0001037 261.1033  98.9701 15.27586473149303

JSON: /api/v1/satellites/57865 · /tle

For live sub-satellite position, see the globe view (requires WebGL).

§ Visibility from observer

Set your observer location to see the next 7 days of passes ≥ 10°. The values pass through the URL so the page stays shareable.

No JS? Fill the form by hand. The geolocation button needs JavaScript.